{"data":{"norad_id":64295,"intl_designator":"2025-123E","name":"STARLINK-34424","alt_names":[],"object_type":"PAYLOAD","status":"ACTIVE","operator":null,"country":"US","launch_date":"2025-06-08","launch_site_code":"AFWTR","launch_vehicle":null,"mission":null,"orbit_class":"UNKNOWN","rcs_meters":null,"size_class":null,"mass_kg":null,"dimensions":null,"purposes":["comms"],"wikipedia_slug":null,"has_3d_model":false,"image_url":null,"decayed_at":null,"tle_current":{"epoch":"2026-09-20T21:59:11.877216Z","epoch_age_seconds":101698,"freshness":"FRESH","line1":"1 64295U 25123E   26263.91610969  .00008439  00000+0  29764-3 0  9993","line2":"2 64295  70.0003  59.7400 0003294 266.2982  93.7816 15.29585428 72143","mean_motion":15.29585428,"eccentricity":0.0003294,"inclination_deg":70.0003,"raan_deg":59.74,"arg_perigee_deg":266.2982,"mean_anomaly_deg":93.7816,"bstar":0.00029764,"rev_number":7214,"period_min":94.143156285351,"perigee_km":474.79258618727,"apogee_km":479.30878383415,"semimajor_km":6855.1876850107,"source":"CELESTRAK","updated_at":"2026-09-21T09:00:35.305464Z"}}}